Weather History for Peoria, IL

Change the Weather History Date:

Sunday, March 24, 2013

  Actual Average Record
Temperature  
Mean Temperature 31 °F 44 °F  
Max Temperature 33 °F 54 °F 81 °F (1929)
Min Temperature 29 °F 34 °F 6 °F (1974)
Degree Days  
Heating Degree Days 34 21  
Month to date heating degree days 779 619  
Since 1 July heating degree days 5072 5135  
Cooling Degree Days 0 0  
Month to date cooling degree days 0 0  
Year to date cooling degree days 0 0  
Moisture  
Dew Point 27 °F    
Average Humidity 77    
Maximum Humidity 92    
Minimum Humidity 61    
Precipitation  
Precipitation 0.69 in 0.09 in 1.92 in (2009)
Month to date precipitation 2.56 2.09  
Year to date precipitation 9.29 5.66  
Snow  
Snow 7.00 in 0.00 in 7.00 in (2013)
Month to date snowfall 10.2 2.3  
Since 1 July snowfall 22.1 23.6  
Snow Depth 1.00 in    
Sea Level Pressure  
Sea Level Pressure 29.80 in    
Wind  
Wind Speed 12 mph (NNE)    
Max Wind Speed 18 mph    
Max Gust Speed 30 mph    
Visibility 2 miles    
Events Fog , Snow    
T = Trace of Precipitation, MM = Missing Value Source: NWS Daily Summary

Daily Weather History Graph

Daily Weather History Graph

Search for Another Location

Airport:

Trip Planner

Search our weather history database for the weather conditions in past years. The results will help you decide how hot, cold, wet, or windy it might be!

Date:

Astronomy

Mar. 24, 2013 Rise Set
Actual Time 6:55 AM CDT 7:15 PM CDT
Civil Twilight 6:27 AM CDT 7:42 PM CDT
Nautical Twilight 5:55 AM CDT 8:14 PM CDT
Astronomical Twilight 5:22 AM CDT 8:47 PM CDT
Moon 4:43 PM CDT (3/24) 5:06 AM CDT (3/24)
Length of Visible Light 13h 15m
Length of Day
12h 20m
Waxing Gibbous, 92% of the Moon is Illuminated
Mar 24
Waxing Gibbous
Mar 27
Full
Apr 2
Last Quarter
Apr 10
New
Apr 18
First Quarter

Hourly Weather History & Observations

Time (CDT) Temp. Windchill Dew Point Humidity Pressure Visibility Wind Dir Wind Speed Gust Speed Precip Events Conditions
12:54 AM 33.1 °F 23.4 °F 21.9 °F 64% 29.98 in 10.0 mi NE 13.8 mph - N/A   Overcast
1:40 AM 30.2 °F 21.3 °F 24.8 °F 80% 29.97 in 2.5 mi NE 10.4 mph - N/A Snow Light Snow
1:50 AM 30.2 °F 20.8 °F 26.6 °F 86% 29.97 in 2.5 mi NE 11.5 mph 21.9 mph 0.00 in Snow Light Snow
1:54 AM 30.9 °F 22.2 °F 26.1 °F 82% 29.99 in 2.0 mi NE 10.4 mph 21.9 mph 0.00 in Snow Light Snow
2:04 AM 30.0 °F 21.1 °F 27.0 °F 88% 29.97 in 1.8 mi NE 10.4 mph - 0.00 in Snow Light Snow
2:10 AM 30.0 °F 20.0 °F 27.0 °F 88% 29.97 in 2.0 mi NE 12.7 mph - 0.00 in Snow Light Snow
2:20 AM 30.0 °F 20.0 °F 27.0 °F 88% 29.97 in 1.5 mi NE 12.7 mph - 0.01 in Snow Light Snow
2:50 AM 30.2 °F 20.2 °F 26.6 °F 86% 29.95 in 2.0 mi NE 12.7 mph - 0.01 in Snow Light Snow
2:54 AM 30.0 °F 20.0 °F 27.0 °F 88% 29.96 in 2.5 mi NE 12.7 mph - 0.02 in Snow Light Snow
3:02 AM 30.0 °F 20.0 °F 27.0 °F 88% 29.94 in 3.0 mi NE 12.7 mph - 0.00 in Snow Light Snow
3:09 AM 30.0 °F 18.7 °F 27.0 °F 88% 29.94 in 1.8 mi NE 16.1 mph - 0.00 in Snow Light Snow
3:18 AM 30.0 °F 20.0 °F 27.0 °F 88% 29.94 in 1.0 mi NE 12.7 mph 23.0 mph 0.00 in Snow Light Snow
3:37 AM 30.0 °F 18.3 °F 27.0 °F 88% 29.93 in 1.0 mi ENE 17.3 mph 21.9 mph 0.01 in Snow Light Snow
3:54 AM 30.0 °F 19.5 °F 27.0 °F 88% 29.92 in 1.2 mi ENE 13.8 mph - 0.02 in Snow Light Snow
4:05 AM 30.0 °F 19.5 °F 27.0 °F 88% 29.90 in 1.5 mi ENE 13.8 mph - 0.00 in Snow Light Snow
4:13 AM 30.0 °F 19.5 °F 27.0 °F 88% 29.89 in 1.8 mi ENE 13.8 mph - 0.00 in Snow Light Snow
4:18 AM 30.0 °F 19.1 °F 27.0 °F 88% 29.88 in 2.0 mi ENE 15.0 mph - 0.00 in Snow Light Snow
4:40 AM 30.0 °F 19.5 °F 27.0 °F 88% 29.88 in 1.8 mi ENE 13.8 mph - 0.01 in Snow Light Snow
4:54 AM 30.0 °F 20.0 °F 27.0 °F 88% 29.88 in 1.8 mi ENE 12.7 mph - 0.01 in Snow Light Snow
5:04 AM 30.0 °F 20.5 °F 27.0 °F 88% 29.87 in 2.5 mi ENE 11.5 mph - 0.00 in Snow Light Snow
5:17 AM 30.0 °F 19.1 °F 27.0 °F 88% 29.87 in 3.0 mi ENE 15.0 mph - 0.00 in Snow Light Snow
5:54 AM 30.0 °F 21.1 °F 26.1 °F 85% 29.88 in 5.0 mi ENE 10.4 mph - 0.00 in Snow Light Snow
6:54 AM 30.0 °F 20.0 °F 26.1 °F 85% 29.86 in 7.0 mi ENE 12.7 mph - 0.00 in Snow Light Snow
7:54 AM 30.0 °F 19.5 °F 27.0 °F 88% 29.82 in 4.0 mi NE 13.8 mph - 0.01 in Snow Light Snow
8:14 AM 30.0 °F 18.3 °F 27.0 °F 88% 29.77 in 2.5 mi NE 17.3 mph - 0.00 in Snow Light Snow
8:23 AM 30.0 °F 18.7 °F 27.0 °F 88% 29.76 in 3.0 mi NE 16.1 mph - 0.00 in Snow Light Snow
8:37 AM 30.0 °F 20.0 °F 27.0 °F 88% 29.77 in 3.0 mi ENE 12.7 mph - 0.00 in Snow Light Snow
8:54 AM 30.0 °F 19.5 °F 27.0 °F 88% 29.78 in 4.0 mi ENE 13.8 mph - 0.00 in Snow Light Snow
9:07 AM 30.9 °F 19.8 °F 27.0 °F 85% 29.75 in 4.0 mi NE 16.1 mph 21.9 mph 0.00 in   Overcast
9:54 AM 30.9 °F 19.8 °F 27.0 °F 85% 29.76 in 7.0 mi NE 16.1 mph - 0.00 in   Overcast
10:54 AM 30.9 °F 21.2 °F 26.1 °F 82% 29.78 in 5.0 mi NNE 12.7 mph 16.1 mph 0.00 in Snow Light Snow
11:11 AM 30.9 °F 22.2 °F 26.1 °F 82% 29.75 in 2.0 mi NNE 10.4 mph - 0.01 in Snow Light Snow
11:14 AM 30.9 °F 22.8 °F 26.1 °F 82% 29.75 in 1.8 mi NNE 9.2 mph - 0.01 in Snow Light Snow
11:40 AM 30.9 °F 22.8 °F 27.0 °F 85% 29.74 in 1.2 mi NNE 9.2 mph - 0.03 in Snow Light Snow
11:54 AM 30.9 °F 24.3 °F 28.0 °F 89% 29.75 in 0.8 mi North 6.9 mph - 0.04 in Snow Light Snow
12:04 PM 30.9 °F 25.2 °F 28.0 °F 89% 29.73 in 0.5 mi North 5.8 mph - 0.01 in Fog , Snow Snow
12:15 PM 30.9 °F 22.8 °F 28.0 °F 89% 29.72 in 0.5 mi North 9.2 mph - 0.03 in Fog , Snow Snow
12:36 PM 30.9 °F 23.5 °F 28.9 °F 92% 29.71 in 0.2 mi North 8.1 mph - 0.05 in Fog , Snow Snow
12:52 PM 30.2 °F 21.9 °F 28.4 °F 93% 29.71 in 0.5 mi NNE 9.2 mph - 0.06 in Fog , Snow Snow
12:54 PM 30.9 °F 26.2 °F 28.9 °F 92% 29.73 in 0.5 mi NNE 4.6 mph - 0.06 in Fog , Snow Snow
1:54 PM 30.9 °F 21.7 °F 28.9 °F 92% 29.69 in 0.5 mi NNE 11.5 mph 21.9 mph 0.04 in Fog , Snow Snow
2:01 PM 30.9 °F 21.7 °F 28.9 °F 92% 29.66 in 0.2 mi NNE 11.5 mph 20.7 mph 0.01 in Fog , Snow Snow
2:54 PM 30.9 °F 22.2 °F 28.9 °F 92% 29.66 in 0.2 mi NNE 10.4 mph 20.7 mph 0.06 in Fog , Snow Snow
3:14 PM 32.0 °F 24.8 °F 28.9 °F 88% 29.64 in 0.5 mi NNE 8.1 mph - 0.02 in Fog , Snow Snow
3:54 PM 32.0 °F 23.0 °F 30.0 °F 92% 29.67 in 0.2 mi NNE 11.5 mph 19.6 mph 0.06 in Fog , Snow Snow
4:04 PM 32.0 °F 23.0 °F 28.9 °F 88% 29.65 in 0.5 mi NNE 11.5 mph 18.4 mph 0.00 in Fog , Snow Snow
4:32 PM 32.0 °F 22.5 °F 28.9 °F 88% 29.66 in 0.2 mi NNE 12.7 mph 18.4 mph 0.03 in Fog , Snow Snow
4:54 PM 32.0 °F 23.6 °F 30.0 °F 92% 29.68 in 0.2 mi North 10.4 mph - 0.06 in Fog , Snow Snow
5:34 PM 32.0 °F 23.6 °F 30.0 °F 92% 29.66 in 0.5 mi North 10.4 mph - 0.05 in Fog , Snow Light Snow
5:54 PM 32.0 °F 22.5 °F 28.9 °F 88% 29.69 in 0.8 mi North 12.7 mph - 0.06 in Snow Light Snow
6:54 PM 30.9 °F 21.7 °F 28.9 °F 92% 29.72 in 0.5 mi North 11.5 mph 21.9 mph 0.02 in Fog , Snow Snow
7:04 PM 30.9 °F 21.2 °F 28.9 °F 92% 29.70 in 0.2 mi North 12.7 mph 20.7 mph 0.01 in Fog , Snow Snow
7:11 PM 30.9 °F 21.7 °F 28.9 °F 92% 29.70 in 0.5 mi North 11.5 mph 20.7 mph 0.02 in Fog , Snow Snow
7:44 PM 30.9 °F 21.7 °F 28.9 °F 92% 29.71 in 1.0 mi North 11.5 mph 24.2 mph 0.04 in Snow Light Snow
7:54 PM 30.9 °F 21.2 °F 28.9 °F 92% 29.74 in 1.0 mi North 12.7 mph 21.9 mph 0.05 in Snow Light Snow
8:54 PM 30.9 °F 22.8 °F 28.9 °F 92% 29.75 in 1.2 mi North 9.2 mph 17.3 mph 0.02 in Snow Light Snow
9:54 PM 30.0 °F 20.0 °F 28.0 °F 92% 29.77 in 1.0 mi North 12.7 mph 21.9 mph 0.03 in Snow Light Snow
10:22 PM 30.0 °F 20.5 °F 28.0 °F 92% 29.75 in 1.5 mi North 11.5 mph 25.3 mph 0.01 in Snow Light Snow
10:43 PM 30.0 °F 20.5 °F 28.0 °F 92% 29.75 in 1.5 mi North 11.5 mph 19.6 mph 0.02 in Snow Light Snow
10:54 PM 30.0 °F 20.0 °F 27.0 °F 88% 29.78 in 1.5 mi North 12.7 mph 21.9 mph 0.02 in Snow Light Snow
11:02 PM 30.0 °F 20.5 °F 27.0 °F 88% 29.75 in 1.2 mi North 11.5 mph 23.0 mph 0.00 in Snow Light Snow
11:49 PM 30.2 °F 21.3 °F 26.6 °F 86% 29.76 in 1.2 mi North 10.4 mph 20.7 mph 0.02 in Snow Light Snow
11:54 PM 30.0 °F 20.0 °F 27.0 °F 88% 29.78 in 1.2 mi North 12.7 mph 19.6 mph 0.02 in Snow Light Snow